Upstream stations:
Downstream station:
SHEF ID: BGSO2 Deep Fork near Beggs, OK
STATION TYPE:
Regulating: Stage = 18.00, Flow = 8600
PRECIP STAGE STAGE(2) RIV-FLOW BAT-LOAD
in ft ft cfs volt
Ccp-Rev Ccp-Rev Ccp-Rev Ccp-Rev Ccp-Rev
(US/Central)
10/08 00:00 0.00 0.82 0.82 107 11.86
10/08 01:00 0.00 0.81 0.80 105 11.86
10/08 02:00 0.00 0.80 0.79 104 11.86
10/08 03:00 0.00 0.79 0.78 103 11.86
10/08 04:00 0.00 0.78 0.77 102 11.86
10/08 05:00 0.00 0.77 0.76 100 11.77
10/08 06:00 0.00 0.76 0.75 99 11.77
10/08 07:00 0.00 0.75 0.74 98 11.77
10/08 08:00 0.00 0.73 0.73 95 11.77
10/08 09:00 0.00 0.72 0.72 94 11.77
10/08 10:00 0.00 0.71 0.71 93 12.01
10/08 11:00 0.00 0.70 0.69 92 12.41
10/08 12:00 0.00 0.69 0.69 91 12.57
10/08 13:00 0.00 0.68 0.65 90 12.81
10/08 14:00 0.00 0.67 0.66 88 12.73
10/08 15:00 0.00 0.66 0.66 87 12.57
10/08 16:00 0.00 0.65 0.64 86 12.49
10/08 17:00 0.00 0.64 0.63 85 12.41
10/08 18:00 0.00 0.63 0.63 84 12.09
10/08 19:00 0.00 0.63 0.61 84 12.01
10/08 20:00 0.00 0.62 0.61 83 12.17
10/08 21:00 0.00 0.61 0.60 82 12.17
10/08 22:00 0.00 0.60 0.59 81 12.01
10/08 23:00 0.00 0.60 0.59 81 12.01